[[{"header":{"parameterUnit":"m.s-1","parameterCategory":1,"la1":30.2991,"la2":30.254,"lo1":-89.0895,"lo2":-89.0444,"dy":0.0017,"dx":0.0017,"nx":28,"ny":28,"refTime":"2024-08-08T21:00:00:Z","depth":0,"parameterNumber":2,"parameterNumberName":"U-component_of_WINDS"},"data":[0,0,0,0,0,0,0,0,0,0,0,0,0,0,0,0,0,0,0,0,0,0,0,0,0,0,0,0,0,0,0,0,0,0,0,0,0,0,0,0,0,0,0,0,0,0,0,0,0,0,0,0,0,0,0,0,0,0,0.232,0.232,0,0.2323,0.2323,0.2323,0.2297,0.2296,0.2296,0.2295,0.2301,0.2301,0.2302,0,0,0,0,0,0,0,0,0,0,0,0,0,0.2293,0.2294,0.232,0.232,0.232,0.2323,0.2323,0.2323,0.2297,0.2296,0.2295,0.2294,0.23,0.2301,0.2302,0,0,0,0,0,0,0,0,0,0,0,0,0,0.2302,0.2294,0.232,0.2307,0.2306,0.2323,0.2323,0.2323,0.2297,0.2296,0.2295,0.2294,0.23,0.2301,0.2302,0.2332,0,0,0.2306,0.2307,0,0,0,0,0,0,0,0,0.2301,0.2303,0.2309,0.2308,0.2307,0.2308,0.2316,0.2327,0.2298,0.2301,0.2295,0.2294,0.2304,0.2305,0.2308,0.2333,0.2333,0.2306,0.2307,0.2308,0.2308,0,0,0,0,0,0,0,0.2301,0.2302,0.2321,0.2309,0.2308,0.2302,0.2302,0.2318,0.2309,0.23,0.2298,0.2299,0.2303,0.2307,0.2308,0.2333,0.2306,0.2307,0.2308,0.2309,0.2382,0.2383,0,0,0,0,0,0,0.2302,0.2302,0.2321,0.2321,0.2301,0.2304,0.2304,0.2309,0.2309,0.2307,0.23,0.2298,0.2305,0.2307,0.2308,0.2343,0.2308,0.2309,0.231,0.2381,0.2383,0.2384,0,0,0,0,0,0,0.2301,0.2303,0.2321,0.2311,0.2313,0.2305,0.2312,0.231,0.2313,0.2308,0.2307,0.2305,0.2305,0.2306,0.2326,0.2343,0.2309,0.2311,0.238,0.2382,0.2383,0.2413,0,0,0,0,0,0,0.23,0.2303,0.2314,0.2312,0.2314,0.2339,0.2313,0.2311,0.2315,0.2312,0.2313,0.2312,0.2304,0.2325,0.2328,0.2344,0.2312,0.2378,0.2381,0.2383,0.2411,0.2416,0.242,0,0,0,0,0,0.23,0.2323,0.2315,0.2317,0.2327,0.234,0.2341,0.2331,0.2317,0.2328,0.2325,0.2312,0.2341,0.2327,0.233,0.2347,0.2377,0.238,0.2382,0.2409,0.2415,0.242,0,0,0,0,0,0,0.2329,0.2323,0.2313,0.2337,0.2339,0.2335,0.2349,0.2338,0.2344,0.2342,0.233,0.233,0.2352,0.2352,0.2336,0.2376,0.2357,0.236,0.2375,0.2381,0.2386,0.2385,0.2313,0,0,0,0,0,0.2338,0.2348,0.2342,0.2363,0.2365,0.2357,0.2362,0.2354,0.2356,0.2357,0.2355,0.2358,0.2368,0.2375,0.2383,0.2411,0.241,0.2424,0.2429,0.2433,0.2436,0.245,0.2456,0.2393,0.2393,0.2393,0,0,0.2357,0.2355,0.2362,0.2369,0.237,0.2381,0.2358,0.2371,0.2379,0.2359,0.2377,0.2376,0.2379,0.2403,0.2413,0.2403,0.2453,0.2436,0.2439,0.244,0.2453,0.2459,0.2465,0.2395,0.2394,0.2394,0,0,0.2397,0.2396,0.2413,0.2414,0.2415,0.241,0.2414,0.2412,0.241,0.2428,0.2414,0.2424,0.2441,0.2444,0.2447,0.2488,0.2477,0.2492,0.2516,0.253,0.2535,0.2539,0.2554,0.2559,0.2495,0.2495,0.2495,0,0.242,0.2436,0.2424,0.2438,0.2442,0.2423,0.2441,0.2443,0.2447,0.2451,0.2439,0.246,0.2461,0.2485,0.2495,0.2498,0.2503,0.2491,0.2535,0.2539,0.2543,0.2557,0.2562,0.2497,0.2496,0.2496,0.2496,0,0.2465,0.2476,0.249,0.2493,0.2499,0.2515,0.2506,0.2513,0.2505,0.2501,0.2519,0.2519,0.2528,0.2533,0.2525,0.2556,0.255,0.2537,0.2517,0.2551,0.2564,0.2569,0.2499,0.2498,0.2498,0.2498,0,0,0.2523,0.2519,0.2525,0.2526,0.2526,0.2535,0.255,0.2557,0.2563,0.2567,0.258,0.2595,0.2583,0.2587,0.258,0.2592,0.2624,0.2578,0.2578,0.2586,0.2658,0.2667,0.2673,0.2617,0.2618,0.2618,0.2657,0,0.2561,0.2586,0.2576,0.2602,0.2612,0.2595,0.2608,0.261,0.2607,0.2616,0.2613,0.2623,0.2607,0.2609,0.2621,0.2618,0.2638,0.2615,0.2629,0.2629,0.2628,0.2679,0.2689,0.2725,0.2662,0.2663,0.2663,0,0.261,0.2614,0.2641,0.2639,0.2643,0.2655,0.266,0.2669,0.2671,0.2668,0.2672,0.2662,0.2678,0.2658,0.2679,0.2664,0.2669,0.2668,0.2669,0.267,0.2648,0.2681,0.2737,0.2742,0.2671,0.2671,0.267,0,0.2649,0.2662,0.2679,0.2681,0.2679,0.2688,0.2688,0.2688,0.2694,0.2699,0.2702,0.271,0.2714,0.272,0.2713,0.2699,0.2735,0.2715,0.2733,0.2733,0.2741,0.274,0.2798,0.2745,0.2745,0.2745,0.2745,0,0.2693,0.271,0.2697,0.2708,0.2726,0.2715,0.2734,0.2732,0.2733,0.2743,0.273,0.274,0.273,0.2739,0.2734,0.2752,0.2754,0.2752,0.275,0.2753,0.2753,0.2756,0.2753,0.2747,0.2746,0.2746,0.2746,0,0.2739,0.2731,0.2749,0.2746,0.2745,0.2759,0.2756,0.2767,0.2762,0.2776,0.2779,0.2772,0.2783,0.2776,0.2787,0.2783,0.2807,0.2802,0.2806,0.2804,0.2823,0.2821,0.2883,0.2891,0.2834,0.2835,0.2835,0,0.2767,0.278,0.2777,0.2783,0.2783,0.2793,0.2797,0.2787,0.2793,0.2796,0.2806,0.2815,0.2822,0.284,0.2837,0.2845,0.284,0.2861,0.2841,0.2843,0.2839,0.2838,0.284,0.2865,0.2866,0.2866,0.2867,0,0.2818,0.2813,0.282,0.2826,0.2832,0.2836,0.2839,0.2845,0.2835,0.2842,0.2852,0.2857,0.2868,0.2877,0.2884,0.2885,0.2874,0.2873,0.2878,0.288,0.2882,0.288,0.2816,0.2872,0.2871,0.2871,0.2871,0.287,0.2856,0.2866,0.2865,0.2874,0.2875,0.2878,0.2887,0.2884,0.2892,0.2899,0.2893,0.2905,0.2907,0.2915,0.2917,0.2927,0.2918,0.2925,0.2927,0.2928,0.2931,0.2881,0.2929,0.2928,0.2928,0.2928,0.2928,0,0.2905,0.2904,0.2912,0.2916,0.2923,0.2911,0.2914,0.2921,0.2931,0.2934,0.294,0.2952,0.2961,0.2959,0.2967,0.2975,0.2971,0.2978,0.2977,0.2977,0.2938,0.2933,0.2982,0.2981,0.2981,0.2981,0.2981,0.2981,0.2932,0.2948,0.2943,0.296,0.2959,0.297,0.2973,0.2976,0.2978,0.2991,0.2998,0.2996,0.2997,0.3005,0.3013,0.3012,0.3016,0.3024,0.3022,0.2985,0.298,0.2975,0.297,0.3025,0.3026,0.306,0.306,0.306]},{"header":{"parameterUnit":"m.s-1","parameterCategory":1,"la1":30.2991,"la2":30.254,"lo1":-89.0895,"lo2":-89.0444,"dy":0.0017,"dx":0.0017,"nx":28,"ny":28,"refTime":"2024-08-08T21:00:00:Z","depth":0,"parameterNumber":3,"parameterNumberName":"V-component_of_WINDS"},"data":[0,0,0,0,0,0,0,0,0,0,0,0,0,0,0,0,0,0,0,0,0,0,0,0,0,0,0,0,0,0,0,0,0,0,0,0,0,0,0,0,0,0,0,0,0,0,0,0,0,0,0,0,0,0,0,0,0,0,-2.2349,-2.235,0,-2.2418,-2.2419,-2.2419,-2.2435,-2.2435,-2.2434,-2.2434,-2.2502,-2.2505,-2.2507,0,0,0,0,0,0,0,0,0,0,0,0,0,-2.2231,-2.2233,-2.2349,-2.235,-2.2351,-2.2418,-2.2419,-2.242,-2.2435,-2.2435,-2.2434,-2.2433,-2.2502,-2.2504,-2.2507,0,0,0,0,0,0,0,0,0,0,0,0,0,-2.2289,-2.2234,-2.2349,-2.2367,-2.2369,-2.2417,-2.2419,-2.242,-2.2435,-2.2435,-2.2434,-2.2433,-2.2501,-2.2504,-2.2508,-2.2543,0,0,-2.2518,-2.2519,0,0,0,0,0,0,0,0,-2.2286,-2.2294,-2.2363,-2.2366,-2.2368,-2.2417,-2.2402,-2.2461,-2.2435,-2.241,-2.2434,-2.2433,-2.2475,-2.248,-2.2494,-2.2546,-2.2549,-2.2518,-2.252,-2.2522,-2.2523,0,0,0,0,0,0,0,-2.2282,-2.2291,-2.2376,-2.2364,-2.2367,-2.2371,-2.2379,-2.2414,-2.2445,-2.2412,-2.2413,-2.2421,-2.2476,-2.2491,-2.2496,-2.255,-2.2518,-2.2521,-2.2523,-2.2525,-2.2636,-2.2637,0,0,0,0,0,0,-2.2275,-2.2287,-2.2374,-2.2378,-2.2325,-2.2374,-2.2382,-2.2402,-2.2445,-2.2451,-2.2422,-2.2422,-2.2486,-2.2492,-2.2499,-2.2544,-2.2522,-2.2525,-2.2527,-2.2635,-2.2636,-2.2637,0,0,0,0,0,0,-2.2272,-2.2283,-2.2371,-2.2333,-2.2345,-2.2377,-2.2399,-2.2404,-2.2419,-2.2453,-2.2458,-2.2432,-2.2485,-2.2494,-2.2532,-2.2547,-2.2527,-2.253,-2.2634,-2.2635,-2.2637,-2.2635,0,0,0,0,0,0,-2.2269,-2.2282,-2.2295,-2.2333,-2.2347,-2.2404,-2.24,-2.2406,-2.2425,-2.2426,-2.2463,-2.2469,-2.2485,-2.2527,-2.2536,-2.2551,-2.2532,-2.2633,-2.2635,-2.2636,-2.2634,-2.2636,-2.2638,0,0,0,0,0,-2.2265,-2.2291,-2.2296,-2.2306,-2.2365,-2.2405,-2.2412,-2.2431,-2.2426,-2.2441,-2.2462,-2.2468,-2.2544,-2.2531,-2.2541,-2.2558,-2.2632,-2.2634,-2.2636,-2.2633,-2.2636,-2.2638,0,0,0,0,0,0,-2.2253,-2.2297,-2.2302,-2.2342,-2.237,-2.2407,-2.2426,-2.2433,-2.2462,-2.2462,-2.2484,-2.2492,-2.2529,-2.2547,-2.2532,-2.2595,-2.2588,-2.2592,-2.2582,-2.2585,-2.2587,-2.2582,-2.2535,0,0,0,0,0,-2.2256,-2.2285,-2.2321,-2.2352,-2.2366,-2.2393,-2.2411,-2.2424,-2.2453,-2.2465,-2.2489,-2.2517,-2.2548,-2.2567,-2.2597,-2.2636,-2.2645,-2.2653,-2.2655,-2.2656,-2.266,-2.2684,-2.2688,-2.2644,-2.2644,-2.2644,0,0,-2.226,-2.2288,-2.2304,-2.2351,-2.2374,-2.2404,-2.2403,-2.2434,-2.2457,-2.2469,-2.2508,-2.2527,-2.2559,-2.2599,-2.2618,-2.2615,-2.2674,-2.2659,-2.266,-2.2663,-2.2687,-2.2691,-2.2694,-2.2645,-2.2645,-2.2645,0,0,-2.2284,-2.2307,-2.2337,-2.2361,-2.2396,-2.2414,-2.2421,-2.2458,-2.2471,-2.251,-2.2521,-2.2548,-2.2599,-2.2622,-2.2641,-2.2676,-2.2682,-2.2684,-2.2696,-2.2719,-2.2722,-2.2726,-2.2739,-2.2744,-2.2688,-2.2688,-2.2688,0,-2.2286,-2.2332,-2.2351,-2.2383,-2.2404,-2.2417,-2.2448,-2.2469,-2.2512,-2.2526,-2.2522,-2.2589,-2.2611,-2.2657,-2.2666,-2.268,-2.269,-2.2681,-2.272,-2.2724,-2.2727,-2.274,-2.2745,-2.2688,-2.2688,-2.2688,-2.2688,0,-2.2332,-2.2364,-2.2384,-2.2426,-2.2449,-2.2479,-2.2504,-2.2525,-2.2535,-2.2554,-2.2594,-2.2622,-2.2659,-2.267,-2.268,-2.2718,-2.2716,-2.2716,-2.2709,-2.2731,-2.2744,-2.2749,-2.2688,-2.2688,-2.2688,-2.2688,0,0,-2.2351,-2.2405,-2.2412,-2.2432,-2.2472,-2.2497,-2.2528,-2.2565,-2.2583,-2.2612,-2.264,-2.2683,-2.2684,-2.2706,-2.2718,-2.2738,-2.2766,-2.2736,-2.2738,-2.2742,-2.2812,-2.2812,-2.2818,-2.277,-2.2771,-2.2772,-2.2809,0,-2.2381,-2.2439,-2.2459,-2.2507,-2.2537,-2.2551,-2.2579,-2.2606,-2.2625,-2.2653,-2.2673,-2.2705,-2.2703,-2.2716,-2.2736,-2.2758,-2.2781,-2.2756,-2.2797,-2.2798,-2.279,-2.2824,-2.2825,-2.2859,-2.2814,-2.2815,-2.2816,0,-2.2424,-2.2456,-2.2507,-2.2545,-2.2558,-2.2583,-2.2619,-2.2645,-2.2677,-2.2689,-2.2714,-2.2725,-2.276,-2.275,-2.2798,-2.2781,-2.2799,-2.2813,-2.2814,-2.282,-2.2809,-2.2832,-2.287,-2.2875,-2.2824,-2.2823,-2.2823,0,-2.2435,-2.2489,-2.2528,-2.2544,-2.2589,-2.2606,-2.2626,-2.2657,-2.2678,-2.2709,-2.2723,-2.2757,-2.2776,-2.2803,-2.2823,-2.2815,-2.287,-2.2862,-2.2882,-2.2881,-2.2894,-2.2893,-2.2936,-2.2903,-2.2903,-2.2903,-2.2903,0,-2.2468,-2.2499,-2.2534,-2.2557,-2.2593,-2.2615,-2.265,-2.267,-2.2698,-2.2726,-2.2739,-2.2765,-2.279,-2.282,-2.2836,-2.2874,-2.2882,-2.2893,-2.2898,-2.2893,-2.2892,-2.2906,-2.2905,-2.2904,-2.2904,-2.2903,-2.2903,0,-2.2486,-2.251,-2.2553,-2.2592,-2.2603,-2.2628,-2.2661,-2.2685,-2.2704,-2.274,-2.2749,-2.2779,-2.2815,-2.2838,-2.2883,-2.2894,-2.2936,-2.2939,-2.2926,-2.2928,-2.2947,-2.2945,-2.3002,-2.3011,-2.297,-2.2971,-2.2971,0,-2.2506,-2.253,-2.2573,-2.2593,-2.2613,-2.2644,-2.2667,-2.2689,-2.2712,-2.2751,-2.277,-2.2807,-2.2837,-2.2893,-2.2919,-2.2954,-2.2959,-2.2976,-2.2964,-2.2959,-2.2961,-2.296,-2.2963,-2.2978,-2.2978,-2.2979,-2.2979,0,-2.2539,-2.255,-2.2582,-2.2618,-2.2644,-2.2673,-2.2703,-2.2718,-2.2746,-2.2771,-2.2808,-2.2832,-2.2878,-2.2915,-2.2952,-2.2972,-2.2981,-2.2983,-2.2989,-2.2985,-2.2977,-2.2984,-2.2932,-2.2981,-2.2981,-2.2981,-2.2981,-2.2981,-2.256,-2.2583,-2.2617,-2.2652,-2.2677,-2.2704,-2.2729,-2.2752,-2.2783,-2.2824,-2.2835,-2.2874,-2.2906,-2.2958,-2.2978,-2.3009,-2.3007,-2.3016,-2.3019,-2.3021,-2.3022,-2.2972,-2.3016,-2.3016,-2.3016,-2.3016,-2.3016,0,-2.2595,-2.2618,-2.265,-2.2691,-2.2719,-2.2725,-2.2758,-2.2781,-2.2816,-2.2845,-2.2876,-2.2919,-2.2954,-2.2984,-2.302,-2.304,-2.3045,-2.3049,-2.3048,-2.3053,-2.3021,-2.3013,-2.3044,-2.3044,-2.3044,-2.3044,-2.3044,-2.3044,-2.2616,-2.2657,-2.2672,-2.2725,-2.2747,-2.2786,-2.2805,-2.2831,-2.2855,-2.2903,-2.2933,-2.2952,-2.2982,-2.3021,-2.3055,-2.3062,-2.3076,-2.3079,-2.3088,-2.3058,-2.3055,-2.3052,-2.3044,-2.3082,-2.3082,-2.3118,-2.3118,-2.3118]}]]